CCA9691 ZGHA-ZUUU

Flight info

Callsign CCA9691
Flight time 1h 31m
Altitude 25600
Route OLT7X OLTUS W226 IPMUG W611 BIVAV W138 DYG DCT SUDPI W80 URGEG W231 EKOKA EKOKA8L
Aircraft B78X/H-SDE1E2E3FGHIJ2J3J4J5M1RWXY/LB1D1

Departure

Time 2026-05-08 11:22
Airport Changsha Huanghua International Airport (ZGHA)

Arrival

Time 2026-05-08 12:53
Airport Chengdu Shuangliu International Airport (ZUUU)
Time Latitude Longitude Altitude Speed Heading
2026-05-08 11:21 28.27919 113.21487 7291 ft 227 kts 345°
2026-05-08 11:22 28.29476 113.21390 8410 ft 233 kts
2026-05-08 11:22 28.31117 113.21344 9456 ft 242 kts 351°
2026-05-08 11:22 28.32905 113.21109 9992 ft 279 kts 352°
2026-05-08 11:22 28.35024 113.21041 10031 ft 333 kts
2026-05-08 11:23 28.37347 113.22065 10061 ft 386 kts 30°
2026-05-08 11:23 28.39487 113.24173 10097 ft 430 kts 47°
2026-05-08 11:23 28.41212 113.27107 10347 ft 454 kts 65°
2026-05-08 11:23 28.42173 113.30451 12068 ft 444 kts 77°
2026-05-08 11:24 28.42430 113.33918 13614 ft 438 kts 92°
2026-05-08 11:24 28.41919 113.37287 15079 ft 431 kts 108°
2026-05-08 11:24 28.40711 113.40353 16530 ft 422 kts 119°
2026-05-08 11:24 28.39107 113.43029 17971 ft 411 kts 136°
2026-05-08 11:25 28.36908 113.45001 19294 ft 399 kts 154°
2026-05-08 11:25 28.34311 113.46134 20001 ft 405 kts 173°
2026-05-08 11:25 28.31514 113.45937 20325 ft 411 kts 206°
2026-05-08 11:25 28.29254 113.44080 21407 ft 392 kts 234°
2026-05-08 11:26 28.28142 113.41433 23320 ft 362 kts 259°
2026-05-08 11:26 28.28119 113.38615 24293 ft 364 kts 281°
2026-05-08 11:26 28.29213 113.35924 24189 ft 399 kts 306°
2026-05-08 11:26 28.31522 113.33965 24262 ft 435 kts 334°
2026-05-08 11:27 28.34499 113.33467 25501 ft 435 kts 360°
2026-05-08 11:27 28.37386 113.34337 27068 ft 424 kts 12°
2026-05-08 11:27 28.40280 113.34921 27229 ft 430 kts 356°
2026-05-08 11:27 28.43278 113.34615 27167 ft 438 kts 340°
2026-05-08 11:28 28.46172 113.33440 27130 ft 448 kts 327°
2026-05-08 11:28 28.48795 113.31480 27073 ft 457 kts 315°
2026-05-08 11:28 28.51000 113.28837 27030 ft 466 kts 304°
2026-05-08 11:28 28.52769 113.25708 26970 ft 476 kts 294°
2026-05-08 11:29 28.53942 113.22155 26905 ft 486 kts 283°
2026-05-08 11:29 28.54639 113.18349 26827 ft 497 kts 279°
2026-05-08 11:29 28.55270 113.14439 26744 ft 507 kts 280°
2026-05-08 11:29 28.56053 113.10526 26286 ft 508 kts 282°
2026-05-08 11:30 28.56852 113.06552 25048 ft 515 kts 280°
2026-05-08 11:30 28.57619 113.02580 25258 ft 515 kts 283°
2026-05-08 11:30 28.58580 112.98661 25386 ft 513 kts 285°
2026-05-08 11:30 28.59520 112.94740 25549 ft 512 kts 282°
2026-05-08 11:31 28.60279 112.90787 25611 ft 508 kts 281°
2026-05-08 11:31 28.60994 112.86913 25611 ft 495 kts 281°
2026-05-08 11:31 28.61775 112.83213 25698 ft 467 kts 283°
2026-05-08 11:31 28.62542 112.79720 25756 ft 444 kts 282°
2026-05-08 11:32 28.63225 112.76378 25753 ft 424 kts 281°
2026-05-08 11:32 28.63858 112.73170 25753 ft 406 kts 281°
2026-05-08 11:32 28.64485 112.70099 25754 ft 395 kts 282°
2026-05-08 11:32 28.65112 112.67074 25755 ft 400 kts 282°
2026-05-08 11:33 28.65749 112.63967 25758 ft 396 kts 282°
2026-05-08 11:33 28.66371 112.60899 25754 ft 399 kts 282°
2026-05-08 11:33 28.66996 112.57826 25763 ft 398 kts 282°
2026-05-08 11:33 28.67622 112.54755 25766 ft 398 kts 282°
2026-05-08 11:34 28.68239 112.51727 25765 ft 398 kts 282°
2026-05-08 11:34 28.68859 112.48671 25761 ft 398 kts 282°
2026-05-08 11:34 28.69480 112.45601 25764 ft 398 kts 282°
2026-05-08 11:34 28.70099 112.42549 25763 ft 398 kts 282°
2026-05-08 11:35 28.70724 112.39460 25763 ft 398 kts 282°
2026-05-08 11:35 28.71344 112.36391 25766 ft 398 kts 282°
2026-05-08 11:35 28.71964 112.33319 25763 ft 398 kts 282°
2026-05-08 11:35 28.72583 112.30246 25768 ft 398 kts 282°
2026-05-08 11:36 28.73201 112.27177 25769 ft 397 kts 282°
2026-05-08 11:36 28.73617 112.25105 25770 ft 397 kts 282°
2026-05-08 11:36 28.74432 112.21045 25769 ft 397 kts 282°
2026-05-08 11:36 28.75048 112.17975 25770 ft 397 kts 282°
2026-05-08 11:37 28.75452 112.15956 25771 ft 397 kts 282°
2026-05-08 11:37 28.76068 112.12881 25771 ft 397 kts 281°
2026-05-08 11:37 28.76680 112.09817 25772 ft 396 kts 281°
2026-05-08 11:37 28.77290 112.06761 25771 ft 396 kts 281°
2026-05-08 11:38 28.77899 112.03705 25775 ft 395 kts 281°
2026-05-08 11:38 28.78508 112.00650 25772 ft 395 kts 281°
2026-05-08 11:38 28.79115 111.97595 25772 ft 395 kts 281°
2026-05-08 11:38 28.79722 111.94539 25775 ft 396 kts 281°
2026-05-08 11:39 28.80329 111.91478 25777 ft 396 kts 281°
2026-05-08 11:39 28.80936 111.88418 25777 ft 395 kts 281°
2026-05-08 11:39 28.81540 111.85363 25775 ft 395 kts 281°
2026-05-08 11:39 28.82144 111.82308 25776 ft 395 kts 281°
2026-05-08 11:40 28.82745 111.79261 25777 ft 394 kts 281°
2026-05-08 11:40 28.83347 111.76207 25778 ft 395 kts 281°
2026-05-08 11:40 28.83948 111.73153 25779 ft 395 kts 281°
2026-05-08 11:40 28.84549 111.70096 25779 ft 395 kts 281°
2026-05-08 11:41 28.85148 111.67050 25780 ft 394 kts 281°
2026-05-08 11:41 28.85747 111.63991 25784 ft 394 kts 281°
2026-05-08 11:41 28.86345 111.60943 25784 ft 393 kts 281°
2026-05-08 11:41 28.86940 111.57898 25783 ft 394 kts 281°
2026-05-08 11:42 28.87536 111.54849 25785 ft 394 kts 281°
2026-05-08 11:42 28.88131 111.51801 25788 ft 393 kts 281°
2026-05-08 11:42 28.88724 111.48757 25788 ft 393 kts 281°
2026-05-08 11:42 28.89316 111.45715 25785 ft 392 kts 281°
2026-05-08 11:43 28.89907 111.42678 25783 ft 392 kts 281°
2026-05-08 11:43 28.90497 111.39637 25782 ft 393 kts 281°
2026-05-08 11:43 28.91086 111.36599 25784 ft 393 kts 281°
2026-05-08 11:43 28.91675 111.33557 25785 ft 393 kts 281°
2026-05-08 11:44 28.92263 111.30515 25786 ft 392 kts 281°
2026-05-08 11:44 28.92850 111.27480 25787 ft 392 kts 281°
2026-05-08 11:44 28.93436 111.24441 25786 ft 392 kts 281°
2026-05-08 11:44 28.94021 111.21406 25787 ft 392 kts 281°
2026-05-08 11:45 28.94605 111.18370 25784 ft 391 kts 281°
2026-05-08 11:45 28.95187 111.15340 25787 ft 391 kts 281°
2026-05-08 11:45 28.95769 111.12309 25786 ft 391 kts 281°
2026-05-08 11:45 28.96351 111.09275 25788 ft 391 kts 281°
2026-05-08 11:46 28.96931 111.06243 25789 ft 390 kts 281°
2026-05-08 11:46 28.97511 111.03212 25785 ft 391 kts 281°
2026-05-08 11:46 28.98090 111.00177 25792 ft 392 kts 281°
2026-05-08 11:46 28.98670 110.97136 25787 ft 391 kts 281°
2026-05-08 11:47 28.99248 110.94100 25793 ft 391 kts 281°
2026-05-08 11:47 28.99827 110.91062 25792 ft 391 kts 281°
2026-05-08 11:47 29.00402 110.88032 25789 ft 390 kts 281°
2026-05-08 11:47 29.00974 110.85015 25795 ft 400 kts 281°
2026-05-08 11:48 29.01573 110.81846 25798 ft 417 kts 281°
2026-05-08 11:48 29.02198 110.78543 25799 ft 433 kts 281°
2026-05-08 11:48 29.02843 110.75130 25801 ft 446 kts 281°
2026-05-08 11:48 29.03506 110.71619 25803 ft 458 kts 281°
2026-05-08 11:49 29.04184 110.68019 25803 ft 468 kts 281°
2026-05-08 11:49 29.04872 110.64364 25800 ft 471 kts 281°
2026-05-08 11:49 29.05561 110.60704 25804 ft 471 kts 281°
2026-05-08 11:49 29.06246 110.57046 25808 ft 470 kts 281°
2026-05-08 11:50 29.06929 110.53392 25805 ft 470 kts 281°
2026-05-08 11:50 29.07612 110.49744 25803 ft 469 kts 281°
2026-05-08 11:50 29.08290 110.46105 25799 ft 468 kts 281°
2026-05-08 11:50 29.09067 110.42492 25802 ft 469 kts 285°
2026-05-08 11:51 29.10262 110.39008 25800 ft 472 kts 292°
2026-05-08 11:51 29.11860 110.35717 25805 ft 474 kts 298°
2026-05-08 11:51 29.13561 110.32480 25807 ft 475 kts 297°
2026-05-08 11:51 29.15261 110.29247 25804 ft 475 kts 298°
2026-05-08 11:52 29.16968 110.26008 25806 ft 475 kts 298°
2026-05-08 11:52 29.18672 110.22770 25802 ft 475 kts 298°
2026-05-08 11:52 29.20375 110.19527 25804 ft 475 kts 298°
2026-05-08 11:52 29.22075 110.16286 25795 ft 475 kts 297°
2026-05-08 11:53 29.23771 110.13050 25796 ft 474 kts 297°
2026-05-08 11:53 29.25457 110.09832 25793 ft 474 kts 297°
2026-05-08 11:53 29.27166 110.06567 25793 ft 475 kts 297°
2026-05-08 11:53 29.28864 110.03322 25800 ft 475 kts 297°
2026-05-08 11:54 29.30563 110.00072 25815 ft 476 kts 297°
2026-05-08 11:54 29.32262 109.96818 25804 ft 476 kts 297°
2026-05-08 11:54 29.33958 109.93569 25814 ft 475 kts 297°
2026-05-08 11:54 29.35654 109.90317 25817 ft 475 kts 297°
2026-05-08 11:55 29.37349 109.87061 25818 ft 476 kts 297°
2026-05-08 11:55 29.39046 109.83802 25814 ft 476 kts 297°
2026-05-08 11:55 29.40742 109.80543 25809 ft 476 kts 297°
2026-05-08 11:55 29.42439 109.77279 25812 ft 476 kts 297°
2026-05-08 11:56 29.44134 109.74015 25814 ft 476 kts 297°
2026-05-08 11:56 29.45824 109.70757 25814 ft 475 kts 297°
2026-05-08 11:56 29.47512 109.67502 25813 ft 475 kts 297°
2026-05-08 11:56 29.49201 109.64242 25817 ft 475 kts 297°
2026-05-08 11:57 29.50890 109.60979 25810 ft 476 kts 297°
2026-05-08 11:57 29.52582 109.57709 25823 ft 476 kts 297°
2026-05-08 11:57 29.54267 109.54434 25813 ft 475 kts 296°
2026-05-08 11:57 29.55537 109.51022 25815 ft 470 kts 285°
2026-05-08 11:58 29.56306 109.47376 25823 ft 470 kts 281°
2026-05-08 11:58 29.56952 109.43702 25822 ft 470 kts 280°
2026-05-08 11:58 29.57679 109.40041 25824 ft 471 kts 283°
2026-05-08 11:59 29.59489 109.32812 25823 ft 470 kts 283°
2026-05-08 11:59 29.60285 109.29175 25815 ft 470 kts 282°
2026-05-08 11:59 29.61070 109.25529 25822 ft 470 kts 282°
2026-05-08 11:59 29.61906 109.21898 25819 ft 471 kts 283°
2026-05-08 12:00 29.62759 109.18264 25821 ft 471 kts 283°
2026-05-08 12:00 29.63585 109.14625 25820 ft 470 kts 283°
2026-05-08 12:00 29.64394 109.10984 25819 ft 471 kts 283°
2026-05-08 12:00 29.65217 109.07338 25817 ft 471 kts 283°
2026-05-08 12:01 29.66048 109.03701 25814 ft 471 kts 283°
2026-05-08 12:01 29.66872 109.00060 25818 ft 471 kts 283°
2026-05-08 12:01 29.67689 108.96418 25814 ft 471 kts 283°
2026-05-08 12:01 29.68506 108.92774 25827 ft 471 kts 283°
2026-05-08 12:02 29.69329 108.89123 25824 ft 471 kts 283°
2026-05-08 12:02 29.70150 108.85477 25815 ft 472 kts 283°
2026-05-08 12:02 29.70967 108.81822 25811 ft 472 kts 283°
2026-05-08 12:02 29.71773 108.78219 25821 ft 471 kts 283°
2026-05-08 12:03 29.72590 108.74565 25819 ft 472 kts 283°
2026-05-08 12:03 29.73405 108.70914 25820 ft 470 kts 283°
2026-05-08 12:03 29.74222 108.67252 25822 ft 473 kts 283°
2026-05-08 12:03 29.75037 108.63592 25822 ft 471 kts 283°
2026-05-08 12:04 29.75848 108.59940 25825 ft 471 kts 283°
2026-05-08 12:04 29.76661 108.56280 25821 ft 472 kts 283°
2026-05-08 12:04 29.77471 108.52621 25825 ft 472 kts 283°
2026-05-08 12:04 29.78283 108.48954 25821 ft 475 kts 283°
2026-05-08 12:05 29.79096 108.45277 25830 ft 473 kts 283°
2026-05-08 12:05 29.79906 108.41610 25829 ft 473 kts 283°
2026-05-08 12:05 29.80714 108.37940 25825 ft 473 kts 282°
2026-05-08 12:05 29.81521 108.34270 25826 ft 472 kts 283°
2026-05-08 12:06 29.82326 108.30609 25829 ft 472 kts 283°
2026-05-08 12:06 29.83134 108.26935 25823 ft 474 kts 283°
2026-05-08 12:06 29.83947 108.23222 25823 ft 480 kts 283°
2026-05-08 12:06 29.84758 108.19512 25821 ft 477 kts 282°
2026-05-08 12:07 29.85569 108.15802 25817 ft 478 kts 283°
2026-05-08 12:07 29.86380 108.12092 25820 ft 477 kts 283°
2026-05-08 12:07 29.87187 108.08386 25819 ft 477 kts 283°
2026-05-08 12:07 29.87994 108.04673 25816 ft 477 kts 283°
2026-05-08 12:08 29.88800 108.00963 25820 ft 478 kts 283°
2026-05-08 12:08 29.89607 107.97246 25814 ft 478 kts 283°
2026-05-08 12:08 29.90413 107.93526 25811 ft 478 kts 282°
2026-05-08 12:08 29.91218 107.89804 25815 ft 480 kts 282°
2026-05-08 12:09 29.92020 107.86091 25801 ft 468 kts 282°
2026-05-08 12:09 29.92788 107.82544 25788 ft 445 kts 282°
2026-05-08 12:09 29.93517 107.79160 25783 ft 425 kts 282°
2026-05-08 12:09 29.94211 107.75928 25784 ft 406 kts 282°
2026-05-08 12:10 29.94873 107.72844 25777 ft 390 kts 282°
2026-05-08 12:10 29.95522 107.69817 25781 ft 392 kts 282°
2026-05-08 12:10 29.96176 107.66758 25782 ft 391 kts 282°
2026-05-08 12:10 29.96828 107.63716 25778 ft 392 kts 282°
2026-05-08 12:11 29.97482 107.60661 25783 ft 392 kts 282°
2026-05-08 12:11 29.98133 107.57613 25784 ft 392 kts 282°
2026-05-08 12:11 29.98774 107.54605 25783 ft 391 kts 282°
2026-05-08 12:11 29.99424 107.51557 25781 ft 391 kts 282°
2026-05-08 12:12 30.00072 107.48511 25782 ft 391 kts 282°
2026-05-08 12:12 30.00722 107.45453 25789 ft 393 kts 283°
2026-05-08 12:12 30.01700 107.42517 25810 ft 394 kts 295°
2026-05-08 12:12 30.03145 107.39761 25800 ft 397 kts 300°
2026-05-08 12:13 30.04695 107.37174 25805 ft 397 kts 302°
2026-05-08 12:13 30.06312 107.34590 25803 ft 397 kts 302°
2026-05-08 12:13 30.07947 107.32013 25806 ft 398 kts 302°
2026-05-08 12:13 30.09587 107.29441 25808 ft 398 kts 302°
2026-05-08 12:14 30.11246 107.26841 25807 ft 397 kts 302°
2026-05-08 12:14 30.12864 107.24304 25810 ft 397 kts 302°
2026-05-08 12:14 30.14504 107.21732 25807 ft 398 kts 302°
2026-05-08 12:14 30.16146 107.19156 25808 ft 398 kts 302°
2026-05-08 12:15 30.17637 107.16490 25820 ft 393 kts 291°
2026-05-08 12:15 30.18502 107.13506 25813 ft 392 kts 281°
2026-05-08 12:15 30.18926 107.10404 25815 ft 390 kts 274°
2026-05-08 12:15 30.19028 107.07227 25806 ft 391 kts 271°
2026-05-08 12:16 30.19120 107.04126 25805 ft 391 kts 272°
2026-05-08 12:16 30.19292 107.00996 25813 ft 391 kts 274°
2026-05-08 12:16 30.19478 106.97819 25811 ft 391 kts 273°
2026-05-08 12:16 30.19627 106.94683 25813 ft 391 kts 272°
2026-05-08 12:17 30.19764 106.91547 25810 ft 391 kts 272°
2026-05-08 12:17 30.19915 106.88413 25809 ft 390 kts 273°
2026-05-08 12:17 30.20069 106.85326 25808 ft 390 kts 273°
2026-05-08 12:17 30.20220 106.82192 25804 ft 390 kts 273°
2026-05-08 12:18 30.20365 106.79063 25806 ft 390 kts 273°
2026-05-08 12:18 30.20512 106.75933 25807 ft 390 kts 273°
2026-05-08 12:18 30.20660 106.72802 25807 ft 390 kts 273°
2026-05-08 12:18 30.20807 106.69669 25810 ft 391 kts 272°
2026-05-08 12:19 30.20953 106.66532 25810 ft 391 kts 272°
2026-05-08 12:19 30.21097 106.63398 25805 ft 391 kts 272°
2026-05-08 12:19 30.21242 106.60262 25803 ft 391 kts 273°
2026-05-08 12:19 30.21385 106.57125 25804 ft 391 kts 272°
2026-05-08 12:20 30.21528 106.53989 25804 ft 390 kts 272°
2026-05-08 12:20 30.21670 106.50854 25804 ft 390 kts 272°
2026-05-08 12:20 30.21811 106.47720 25805 ft 391 kts 272°
2026-05-08 12:20 30.21952 106.44580 25802 ft 391 kts 272°
2026-05-08 12:21 30.22091 106.41443 25800 ft 391 kts 272°
2026-05-08 12:21 30.22231 106.38302 25800 ft 391 kts 272°
2026-05-08 12:21 30.22369 106.35159 25800 ft 392 kts 272°
2026-05-08 12:21 30.22507 106.32014 25804 ft 391 kts 272°
2026-05-08 12:22 30.22644 106.28872 25806 ft 391 kts 272°
2026-05-08 12:22 30.22781 106.25726 25804 ft 391 kts 272°
2026-05-08 12:22 30.22916 106.22585 25803 ft 391 kts 272°
2026-05-08 12:22 30.23051 106.19454 25664 ft 389 kts 272°
2026-05-08 12:23 30.23184 106.16335 25154 ft 389 kts 272°
2026-05-08 12:23 30.23313 106.13272 25191 ft 378 kts 272°
2026-05-08 12:23 30.23443 106.10205 25195 ft 386 kts 272°
2026-05-08 12:23 30.23529 106.08162 25194 ft 382 kts 272°
2026-05-08 12:24 30.23700 106.04046 25195 ft 385 kts 272°
2026-05-08 12:24 30.23829 106.00965 25171 ft 382 kts 272°
2026-05-08 12:24 30.23955 105.97905 24944 ft 381 kts 272°
2026-05-08 12:24 30.24080 105.94841 24659 ft 381 kts 272°
2026-05-08 12:25 30.24162 105.92810 24462 ft 382 kts 272°
2026-05-08 12:25 30.24287 105.89741 24163 ft 383 kts 272°
2026-05-08 12:25 30.24452 105.85654 23767 ft 385 kts 273°
2026-05-08 12:25 30.24577 105.82553 23399 ft 387 kts 273°
2026-05-08 12:26 30.24661 105.80454 23147 ft 388 kts 273°
2026-05-08 12:26 30.24784 105.77334 22766 ft 389 kts 273°
2026-05-08 12:26 30.24908 105.74196 22379 ft 391 kts 273°
2026-05-08 12:26 30.25031 105.71046 21982 ft 393 kts 273°
2026-05-08 12:27 30.25155 105.67880 21578 ft 395 kts 273°
2026-05-08 12:27 30.25278 105.64699 21258 ft 396 kts 273°
2026-05-08 12:27 30.25400 105.61529 20986 ft 394 kts 273°
2026-05-08 12:27 30.25521 105.58366 20731 ft 393 kts 273°
2026-05-08 12:28 30.25641 105.55215 20472 ft 392 kts 273°
2026-05-08 12:28 30.25759 105.52067 20227 ft 391 kts 273°
2026-05-08 12:28 30.25877 105.48930 19977 ft 390 kts 273°
2026-05-08 12:28 30.25994 105.45793 19735 ft 390 kts 273°
2026-05-08 12:29 30.26110 105.42663 19499 ft 389 kts 273°
2026-05-08 12:29 30.26225 105.39541 19276 ft 389 kts 273°
2026-05-08 12:29 30.26339 105.36418 19048 ft 388 kts 273°
2026-05-08 12:29 30.26450 105.33344 18826 ft 388 kts 273°
2026-05-08 12:30 30.26564 105.30195 18614 ft 387 kts 273°
2026-05-08 12:30 30.26676 105.27083 18383 ft 387 kts 273°
2026-05-08 12:30 30.26785 105.24021 18147 ft 386 kts 273°
2026-05-08 12:30 30.26896 105.20879 17919 ft 385 kts 273°
2026-05-08 12:31 30.27003 105.17832 17695 ft 384 kts 273°
2026-05-08 12:31 30.27111 105.14745 17483 ft 383 kts 273°
2026-05-08 12:31 30.27217 105.11665 17273 ft 383 kts 273°
2026-05-08 12:31 30.27323 105.08596 17069 ft 382 kts 273°
2026-05-08 12:32 30.27428 105.05529 16873 ft 381 kts 273°
2026-05-08 12:32 30.27533 105.02432 16678 ft 380 kts 273°
2026-05-08 12:32 30.27635 104.99423 16490 ft 379 kts 272°
2026-05-08 12:32 30.27737 104.96382 16306 ft 378 kts 272°
2026-05-08 12:33 30.27838 104.93345 16127 ft 377 kts 272°
2026-05-08 12:33 30.27938 104.90313 15958 ft 377 kts 272°
2026-05-08 12:33 30.28037 104.87288 15785 ft 376 kts 272°
2026-05-08 12:33 30.28136 104.84269 15615 ft 375 kts 272°
2026-05-08 12:34 30.28233 104.81254 15447 ft 375 kts 272°
2026-05-08 12:34 30.28330 104.78241 15285 ft 374 kts 272°
2026-05-08 12:34 30.28426 104.75233 15128 ft 374 kts 272°
2026-05-08 12:34 30.28521 104.72227 14972 ft 374 kts 272°
2026-05-08 12:35 30.28615 104.69226 14817 ft 373 kts 272°
2026-05-08 12:35 30.28709 104.66227 14674 ft 373 kts 272°
2026-05-08 12:35 30.28802 104.63233 14520 ft 372 kts 272°
2026-05-08 12:35 30.28893 104.60241 14377 ft 372 kts 272°
2026-05-08 12:36 30.28984 104.57252 14239 ft 372 kts 272°
2026-05-08 12:36 30.29075 104.54261 14104 ft 372 kts 272°
2026-05-08 12:36 30.29165 104.51273 13964 ft 371 kts 272°
2026-05-08 12:36 30.29254 104.48290 13814 ft 371 kts 272°
2026-05-08 12:37 30.29342 104.45308 13671 ft 371 kts 272°
2026-05-08 12:37 30.29429 104.42332 13526 ft 370 kts 272°
2026-05-08 12:37 30.29516 104.39354 13388 ft 370 kts 272°
2026-05-08 12:37 30.29602 104.36384 13248 ft 369 kts 272°
2026-05-08 12:38 30.29687 104.33414 13126 ft 369 kts 272°
2026-05-08 12:38 30.29772 104.30451 12981 ft 368 kts 272°
2026-05-08 12:38 30.29855 104.27490 12865 ft 368 kts 272°
2026-05-08 12:38 30.29938 104.24535 12740 ft 367 kts 272°
2026-05-08 12:39 30.30021 104.21582 12613 ft 367 kts 272°
2026-05-08 12:39 30.30102 104.18631 12493 ft 367 kts 272°
2026-05-08 12:39 30.30182 104.15687 12396 ft 366 kts 272°
2026-05-08 12:39 30.30262 104.12759 12378 ft 363 kts 272°
2026-05-08 12:40 30.30340 104.09854 12360 ft 360 kts 272°
2026-05-08 12:40 30.30417 104.06970 12346 ft 357 kts 272°
2026-05-08 12:40 30.30493 104.04108 12336 ft 355 kts 272°
2026-05-08 12:40 30.30553 104.01262 12324 ft 353 kts 269°
2026-05-08 12:41 30.30081 103.98504 12321 ft 351 kts 248°
2026-05-08 12:41 30.28803 103.96121 12341 ft 349 kts 227°
2026-05-08 12:41 30.26893 103.94417 12372 ft 348 kts 207°
2026-05-08 12:41 30.24676 103.93306 12378 ft 346 kts 203°
2026-05-08 12:42 30.22442 103.92275 12383 ft 346 kts 202°
2026-05-08 12:42 30.20214 103.91269 12361 ft 337 kts 202°
2026-05-08 12:42 30.18092 103.90285 12262 ft 321 kts 203°
2026-05-08 12:42 30.16045 103.89324 12082 ft 325 kts 203°
2026-05-08 12:43 30.13966 103.88321 11712 ft 321 kts 207°
2026-05-08 12:43 30.12278 103.86732 11436 ft 310 kts 234°
2026-05-08 12:43 30.11366 103.84581 11409 ft 292 kts 257°
2026-05-08 12:43 30.11280 103.82325 11399 ft 272 kts 278°
2026-05-08 12:44 30.11835 103.80327 11330 ft 253 kts 291°
2026-05-08 12:44 30.12617 103.78516 10836 ft 254 kts 309°
2026-05-08 12:44 30.14023 103.77315 10359 ft 251 kts 338°
2026-05-08 12:44 30.15703 103.77029 9875 ft 242 kts
2026-05-08 12:45 30.17287 103.77573 9368 ft 235 kts 21°
2026-05-08 12:45 30.18783 103.78273 8816 ft 227 kts 22°
2026-05-08 12:45 30.20207 103.78939 8237 ft 214 kts 21°
2026-05-08 12:45 30.21525 103.79540 7938 ft 196 kts 21°
2026-05-08 12:46 30.22717 103.80094 7699 ft 175 kts 21°
2026-05-08 12:46 30.23830 103.80612 7465 ft 170 kts 21°
2026-05-08 12:46 30.24929 103.81123 7264 ft 171 kts 21°
2026-05-08 12:46 30.26025 103.81633 7044 ft 169 kts 21°
2026-05-08 12:47 30.27120 103.82133 6838 ft 169 kts 21°
2026-05-08 12:47 30.28210 103.82640 6612 ft 168 kts 21°
2026-05-08 12:47 30.29294 103.83145 6390 ft 168 kts 21°
2026-05-08 12:47 30.30379 103.83650 6168 ft 168 kts 21°
2026-05-08 12:48 30.31467 103.84149 5931 ft 168 kts 21°
2026-05-08 12:48 30.32555 103.84655 5712 ft 169 kts 21°
2026-05-08 12:48 30.33646 103.85163 5497 ft 169 kts 21°
2026-05-08 12:48 30.34725 103.85665 5281 ft 170 kts 21°
2026-05-08 12:49 30.35819 103.86172 5047 ft 169 kts 21°
2026-05-08 12:49 30.36915 103.86678 4843 ft 170 kts 21°
2026-05-08 12:49 30.38012 103.87188 4602 ft 170 kts 22°
2026-05-08 12:49 30.39110 103.87700 4382 ft 170 kts 22°
2026-05-08 12:50 30.40207 103.88210 4160 ft 170 kts 22°
2026-05-08 12:50 30.41305 103.88717 3939 ft 170 kts 21°
2026-05-08 12:50 30.42400 103.89224 3722 ft 169 kts 22°
2026-05-08 12:50 30.43493 103.89732 3494 ft 169 kts 22°
2026-05-08 12:51 30.44579 103.90239 3275 ft 168 kts 22°
2026-05-08 12:51 30.46740 103.91246 2846 ft 167 kts 22°
2026-05-08 12:51 30.47819 103.91749 2609 ft 164 kts 22°
2026-05-08 12:52 30.48881 103.92253 2410 ft 162 kts 22°
2026-05-08 12:52 30.51006 103.93243 1938 ft 161 kts 21°
2026-05-08 12:52 30.52077 103.93728 1709 ft 160 kts 21°
2026-05-08 12:53 30.52975 103.94146 1675 ft 108 kts 22°
2026-05-08 12:53 30.53458 103.94353 1671 ft 34 kts
2026-05-08 12:53 30.53645 103.94333 1666 ft 4 kts 351°
2026-05-08 12:53 30.53647 103.94333 1666 ft 0 kts 351°
2026-05-08 12:55 30.53648 103.94332 1666 ft 3 kts 351°
2026-05-08 12:55 30.53748 103.94316 1670 ft 36 kts 352°
2026-05-08 12:55 30.54066 103.94427 1666 ft 56 kts 21°
2026-05-08 12:56 30.54338 103.94512 1653 ft 10 kts 324°
2026-05-08 12:56 30.54488 103.94508 1653 ft 40 kts 21°
2026-05-08 12:56 30.54862 103.94684 1653 ft 49 kts 22°